{"data":{"norad_id":55942,"intl_designator":"2023-037AE","name":"STARLINK-5917","alt_names":[],"object_type":"PAYLOAD","status":"ACTIVE","operator":null,"country":"US","launch_date":"2023-03-17","launch_site_code":"AFWTR","launch_vehicle":null,"mission":null,"orbit_class":"UNKNOWN","rcs_meters":null,"size_class":null,"mass_kg":null,"dimensions":null,"purposes":["comms"],"wikipedia_slug":null,"has_3d_model":false,"image_url":null,"decayed_at":null,"tle_current":{"epoch":"2026-05-25T03:02:42.196128Z","epoch_age_seconds":60272,"freshness":"FRESH","line1":"1 55942U 23037AE  26145.12687727  .00000317  00000+0  34384-4 0  9994","line2":"2 55942  69.9997  91.5753 0003393 261.8950  98.1825 14.98329884175434","mean_motion":14.98329884,"eccentricity":0.0003393,"inclination_deg":69.9997,"raan_deg":91.5753,"arg_perigee_deg":261.895,"mean_anomaly_deg":98.1825,"bstar":3.4384e-5,"rev_number":17543,"period_min":96.107006566252,"perigee_km":569.69804909526,"apogee_km":574.41445023448,"semimajor_km":6950.1932496649,"source":"CELESTRAK","updated_at":"2026-05-25T13:38:17.916341Z"}}}